TimeEST,TemperatureF,Dew PointF,Humidity,Sea Level PressureIn,VisibilityMPH,Wind Direction,Wind SpeedMPH,Gust SpeedMPH,PrecipitationIn,Events,Conditions,WindDirDegrees,DateUTC
12:18 AM,50.0,46.9,89,29.97,2.5,Calm,Calm,-,0.00,,Overcast,0,2012-12-08 05:18:00
12:25 AM,48.9,46.9,93,29.97,3.0,ESE,3.5,-,0.00,,Overcast,120,2012-12-08 05:25:00
12:33 AM,50.0,46.9,89,29.96,2.0,ESE,3.5,-,0.00,,Overcast,120,2012-12-08 05:33:00
12:54 AM,50.0,48.0,93,29.96,2.5,Calm,Calm,-,0.00,,Overcast,0,2012-12-08 05:54:00
1:10 AM,50.0,48.0,93,29.95,3.0,Calm,Calm,-,N/A,,Overcast,0,2012-12-08 06:10:00
1:21 AM,50.0,48.0,93,29.95,2.5,Calm,Calm,-,N/A,,Overcast,0,2012-12-08 06:21:00
1:54 AM,50.0,46.9,89,29.95,2.5,ESE,4.6,-,N/A,,Overcast,120,2012-12-08 06:54:00
2:26 AM,50.0,48.0,93,29.94,1.0,SE,4.6,-,N/A,,Mist,140,2012-12-08 07:26:00
2:35 AM,48.9,48.0,97,29.94,0.5,SE,4.6,-,N/A,Fog,Fog,140,2012-12-08 07:35:00
2:54 AM,48.9,48.0,97,29.94,0.5,SE,4.6,-,N/A,Fog,Fog,130,2012-12-08 07:54:00
3:11 AM,48.9,48.0,97,29.93,0.2,SE,3.5,-,N/A,Fog,Fog,130,2012-12-08 08:11:00
3:54 AM,50.0,48.0,93,29.93,0.2,Calm,Calm,-,N/A,Fog,Fog,0,2012-12-08 08:54:00
4:54 AM,50.0,48.0,93,29.92,0.2,SE,3.5,-,N/A,Fog,Fog,130,2012-12-08 09:54:00
5:20 AM,50.0,48.9,96,29.92,0.5,Calm,Calm,-,N/A,Fog,Fog,0,2012-12-08 10:20:00
5:29 AM,50.0,48.9,96,29.92,1.5,Calm,Calm,-,N/A,,Overcast,0,2012-12-08 10:29:00
5:54 AM,50.0,48.9,96,29.92,0.8,Calm,Calm,-,N/A,,Overcast,0,2012-12-08 10:54:00
6:17 AM,50.0,48.0,93,29.92,0.2,Calm,Calm,-,N/A,Fog,Fog,0,2012-12-08 11:17:00
6:54 AM,50.0,48.0,93,29.94,0.2,Calm,Calm,-,N/A,Fog,Fog,0,2012-12-08 11:54:00
7:09 AM,50.0,48.0,93,29.93,0.5,Calm,Calm,-,N/A,Fog,Fog,0,2012-12-08 12:09:00
7:38 AM,50.0,48.0,93,29.93,0.2,Calm,Calm,-,N/A,Fog,Fog,0,2012-12-08 12:38:00
7:49 AM,50.0,48.2,94,29.93,0.8,Calm,Calm,-,N/A,,Overcast,0,2012-12-08 12:49:00
7:54 AM,51.1,48.9,92,29.95,1.2,NW,3.5,-,N/A,,Overcast,310,2012-12-08 12:54:00
8:08 AM,50.0,48.0,93,29.94,0.8,Calm,Calm,-,N/A,,Overcast,0,2012-12-08 13:08:00
8:43 AM,50.0,48.0,93,29.94,1.0,Calm,Calm,-,N/A,,Overcast,0,2012-12-08 13:43:00
8:54 AM,50.0,48.0,93,29.95,1.5,Calm,Calm,-,N/A,,Overcast,0,2012-12-08 13:54:00
9:10 AM,51.1,48.9,92,29.94,2.0,Calm,Calm,-,N/A,,Overcast,0,2012-12-08 14:10:00
9:27 AM,51.1,48.0,89,29.95,4.0,West,3.5,-,N/A,,Overcast,280,2012-12-08 14:27:00
9:54 AM,51.1,48.0,89,29.96,4.0,Calm,Calm,-,N/A,,Overcast,0,2012-12-08 14:54:00
10:28 AM,52.0,50.0,93,29.95,2.5,South,3.5,-,N/A,,Overcast,180,2012-12-08 15:28:00
10:41 AM,52.0,48.9,89,29.95,3.0,WNW,3.5,-,N/A,,Overcast,300,2012-12-08 15:41:00
10:54 AM,52.0,50.0,93,29.96,2.5,SSW,4.6,-,N/A,,Overcast,210,2012-12-08 15:54:00
11:03 AM,52.0,50.0,93,29.94,3.0,Calm,Calm,-,N/A,,Overcast,0,2012-12-08 16:03:00
11:54 AM,53.1,50.0,89,29.94,4.0,SW,3.5,-,N/A,,Overcast,220,2012-12-08 16:54:00
12:54 PM,53.1,50.0,89,29.92,5.0,SSW,5.8,-,N/A,,Overcast,210,2012-12-08 17:54:00
1:54 PM,51.1,48.9,92,29.91,3.0,SE,9.2,-,N/A,,Overcast,140,2012-12-08 18:54:00
2:37 PM,51.1,48.9,92,29.91,4.0,SE,8.1,-,N/A,,Overcast,130,2012-12-08 19:37:00
2:54 PM,52.0,48.9,89,29.92,4.0,SE,8.1,-,N/A,,Overcast,140,2012-12-08 19:54:00
3:54 PM,51.1,48.9,92,29.93,3.0,SE,6.9,-,N/A,,Overcast,130,2012-12-08 20:54:00
4:34 PM,52.0,50.0,93,29.92,2.5,SE,9.2,-,N/A,,Overcast,140,2012-12-08 21:34:00
4:54 PM,52.0,50.0,93,29.94,4.0,SE,5.8,-,N/A,,Overcast,140,2012-12-08 21:54:00
5:27 PM,52.0,48.9,89,29.93,4.0,SSE,3.5,-,N/A,,Overcast,160,2012-12-08 22:27:00
5:54 PM,51.1,48.9,92,29.94,4.0,SE,6.9,-,N/A,,Overcast,130,2012-12-08 22:54:00
6:54 PM,53.1,51.1,93,29.97,3.0,Calm,Calm,-,N/A,,Overcast,0,2012-12-08 23:54:00
7:22 PM,52.0,50.0,93,29.97,2.5,Calm,Calm,-,N/A,,Overcast,0,2012-12-09 00:22:00
7:54 PM,51.1,48.9,92,29.99,1.5,SE,4.6,-,N/A,,Overcast,130,2012-12-09 00:54:00
8:17 PM,51.1,48.9,92,29.98,0.5,SE,5.8,-,N/A,Fog,Fog,130,2012-12-09 01:17:00
8:28 PM,51.1,50.0,96,29.98,0.2,SE,4.6,-,N/A,Fog,Fog,130,2012-12-09 01:28:00
8:54 PM,52.0,51.1,97,29.99,0.2,South,6.9,-,N/A,Fog,Fog,180,2012-12-09 01:54:00
9:18 PM,51.1,48.9,92,30.00,1.0,SSE,5.8,-,N/A,,Mist,160,2012-12-09 02:18:00
9:31 PM,51.1,48.9,92,30.00,0.5,South,8.1,-,N/A,Fog,Fog,170,2012-12-09 02:31:00
9:49 PM,50.0,48.2,94,30.00,0.2,SSE,4.6,-,N/A,Fog,Fog,150,2012-12-09 02:49:00
9:54 PM,50.0,48.9,96,30.00,0.5,SSE,4.6,-,N/A,Fog,Fog,150,2012-12-09 02:54:00
10:09 PM,50.0,48.9,96,30.00,2.0,SSE,3.5,-,N/A,,Overcast,160,2012-12-09 03:09:00
10:45 PM,50.0,48.0,93,30.01,1.5,SE,3.5,-,N/A,,Overcast,130,2012-12-09 03:45:00
10:54 PM,50.0,48.0,93,30.01,1.8,SE,4.6,-,N/A,,Overcast,140,2012-12-09 03:54:00
11:32 PM,50.0,48.9,96,30.02,3.0,Calm,Calm,-,N/A,,Overcast,0,2012-12-09 04:32:00
11:54 PM,50.0,48.0,93,30.03,5.0,Calm,Calm,-,N/A,,Overcast,0,2012-12-09 04:54:00